RH
70 74 77 78 81 83 86 88 86 84 84 84 81 79 78 74 70 66 63 60 58 57 56 56 55 54 54 53 53 52 51 48 47 45 45 45 45 44 44 41 43 52 55 48 44 43 41 41 40 38 33 27 25 27 27 28 28 29 29 29 30 31 31
69 71 74 76 79 81 84 86 87 87 88 88 86 84 84 84 83 81 77 73 70 66 62 60 59 58 57 56 55 55 54 53 52 50 49 48 48 47 47 46 45 49 54 54 49 46 44 42 41 41 39 34 28 26 25 26 27 27 28 29 28 30 31
69 71 73 76 77 77 79 81 82 85 87 87 88 89 89 88 88 89 88 87 86 83 80 76 73 71 68 67 65 63 60 59 57 57 55 54 53 53 52 51 49 48 53 56 53 50 47 45 43 42 41 40 36 31 27 26 26 26 26 27 28 28 29
68 72 75 77 78 77 77 79 80 82 84 85 88 92 94 95 95 95 94 94 93 91 91 90 89 87 83 81 80 79 76 73 70 67 66 65 64 63 63 61 59 56 56 58 59 56 52 50 48 45 44 42 41 38 33 28 26 27 27 26 27 29 29
68 74 77 78 79 80 79 80 82 83 84 86 91 96 98 99 100 98 95 95 96 96 96 96 97 96 95 92 91 91 91 88 86 82 80 79 77 77 77 76 74 72 70 70 70 67 63 59 55 51 48 46 45 44 40 33 27 26 27 28 27 28 30
70 72 76 79 81 82 83 82 83 86 89 94 97 99 100 100 100 99 97 97 98 99 100 99 100 100 99 99 98 97 98 97 96 95 93 91 87 85 85 86 86 85 84 84 83 80 77 73 68 63 59 54 52 52 50 44 35 29 27 28 29 29 30
73 71 74 79 82 85 86 81 83 89 92 96 100 100 100 100 100 100 100 100 100 100 100 99 99 100 99 100 101 100 100 99 98 98 98 98 96 94 94 95 94 92 92 92 90 88 86 83 79 76 72 67 63 60 58 54 50 44 36 31 31 31 32
76 75 75 73 76 88 89 79 81 88 88 91 99 101 99 99 100 99 98 100 100 98 98 97 94 94 95 96 97 96 97 98 98 98 96 96 97 98 99 99 99 98 98 97 95 93 89 87 86 83 80 77 73 70 67 64 62 59 53 45 37 34 33
75 80 74 66 73 85 79 67 66 74 82 93 101 101 98 99 100 96 95 98 96 89 88 88 84 85 88 90 88 86 89 92 93 94 95 94 95 96 97 99 100 100 100 99 98 95 92 91 90 88 86 83 80 77 74 70 68 67 65 59 52 44 38
75 81 70 69 82 76 57 44 43 58 84 100 102 99 98 100 99 96 96 96 88 82 82 80 77 81 84 82 80 79 83 83 80 82 86 89 94 97 98 100 100 100 100 100 99 96 92 92 91 87 86 85 82 79 77 74 73 72 70 67 63 59 52
76 77 68 79 89 66 41 34 40 68 97 102 99 100 101 100 98 97 100 95 86 84 83 79 82 85 81 80 81 78 75 71 66 66 67 71 83 96 100 100 100 99 99 99 100 98 94 92 90 85 83 83 81 80 79 77 75 73 73 72 71 68 63
78 79 76 89 85 55 41 42 54 85 105 99 98 102 99 98 96 96 98 92 81 76 76 84 94 91 86 89 84 69 61 57 52 56 65 73 84 95 99 100 101 101 101 100 100 100 99 96 94 90 85 82 80 79 78 77 76 75 75 75 76 73 68
82 83 83 90 78 53 48 52 65 93 105 99 99 101 99 99 95 94 96 88 74 66 74 95 100 88 89 92 73 59 68 74 70 72 83 91 94 95 95 97 97 94 95 99 99 100 100 98 98 98 94 90 87 84 82 80 79 78 77 78 78 76 71
85 82 82 87 80 65 59 61 77 100 103 98 101 101 100 94 84 88 95 87 77 76 87 102 97 84 93 93 69 69 91 99 94 95 98 99 97 94 94 95 92 83 80 89 99 101 100 99 99 100 98 95 94 94 91 89 86 83 81 80 79 76 73
84 82 82 85 84 78 69 67 84 104 102 98 102 101 96 89 81 88 94 85 83 90 94 96 91 88 99 94 76 83 100 101 99 101 100 98 94 88 85 85 89 91 90 94 100 100 100 101 100 100 100 99 99 99 96 92 91 91 88 85 83 81 79
84 84 84 86 86 82 74 66 75 98 103 98 102 101 93 88 85 88 88 80 83 93 93 90 91 95 99 94 85 91 101 101 100 100 98 100 97 87 79 75 80 91 96 97 100 101 100 100 98 98 100 98 95 97 98 96 96 97 97 96 93 90 86
89 86 85 91 90 84 81 67 62 87 105 99 99 102 94 90 90 87 84 80 83 91 89 87 93 100 99 94 92 98 101 99 100 100 99 100 100 93 83 75 75 82 86 85 85 84 83 84 84 86 87 83 80 82 87 93 98 98 98 100 97 93 87
91 89 88 95 95 89 92 79 58 73 101 101 98 102 97 91 90 85 83 84 85 89 90 88 93 98 97 93 95 99 101 100 100 100 99 100 100 95 86 79 82 92 94 87 77 69 65 63 60 60 62 61 62 65 69 78 89 94 97 99 96 92 89
96 95 91 96 99 95 99 90 63 66 95 104 98 101 99 95 92 90 91 91 88 89 89 86 88 91 87 88 95 99 101 100 99 100 102 99 94 91 89 91 96 100 95 86 75 65 59 56 52 51 53 53 57 61 63 70 82 91 98 100 96 91 91
96 90 86 89 97 96 97 92 74 72 95 104 98 100 101 96 96 95 92 89 86 85 83 81 84 76 62 68 90 102 101 98 100 103 98 88 86 93 99 99 95 87 79 76 76 72 70 70 66 63 62 59 58 61 64 71 84 95 101 102 100 96 94
87 82 84 88 95 96 93 90 82 81 94 101 101 101 96 91 94 92 85 80 76 76 78 80 75 60 52 68 94 103 99 99 102 99 87 82 92 102 102 94 85 80 79 81 81 79 77 77 74 72 74 75 74 75 79 86 93 98 97 95 98 101 97
78 80 87 89 91 90 86 84 81 82 89 96 101 102 95 93 97 92 79 70 67 70 78 75 64 60 74 93 102 100 99 101 102 98 90 93 102 103 97 91 83 81 84 81 76 79 82 83 84 86 87 86 85 85 86 86 86 87 85 83 89 99 102
83 86 90 89 86 83 81 77 75 78 84 90 98 102 99 99 102 95 78 65 69 78 74 63 66 83 98 102 99 101 103 102 101 103 101 100 102 97 91 86 79 79 84 81 81 88 91 89 88 87 86 85 85 83 80 77 75 74 74 75 82 93 100
85 86 88 88 84 81 78 76 75 77 82 89 95 97 98 101 102 96 80 68 74 77 62 60 86 105 104 102 102 103 102 97 96 102 101 96 93 89 83 80 80 84 87 85 88 94 94 91 89 89 91 91 85 80 76 73 73 74 76 81 86 88 91
85 84 83 83 82 79 77 78 77 73 77 90 95 91 95 101 97 88 79 72 71 62 50 68 101 105 94 97 100 92 88 87 88 94 94 90 87 82 78 80 82 83 82 85 92 96 95 93 92 90 89 83 78 77 77 76 80 82 81 82 83 79 76
86 84 83 82 80 78 76 77 75 68 77 98 98 85 89 95 86 80 76 66 54 42 40 68 96 92 82 87 89 83 82 81 82 84 82 82 83 80 80 84 82 79 80 85 90 93 91 89 87 84 81 78 78 82 82 83 88 89 84 82 83 82 78
86 85 85 81 78 77 76 77 72 65 80 103 99 88 93 91 83 83 75 53 43 41 48 70 84 73 67 74 77 74 74 73 74 74 71 76 82 79 80 86 84 79 81 84 86 88 85 81 81 81 81 82 84 83 81 84 89 91 90 89 89 92 92
90 92 88 80 79 78 77 81 73 62 78 102 101 96 101 94 89 90 69 49 58 63 56 67 75 60 55 66 70 66 66 69 72 70 69 77 83 80 81 85 84 81 81 82 85 84 79 75 78 80 82 83 84 84 83 84 86 88 89 89 90 92 92
98 98 87 79 83 83 80 84 74 61 79 101 100 100 103 98 101 99 63 46 74 80 57 58 70 61 57 67 72 71 71 73 73 71 71 78 82 81 83 85 85 85 83 83 86 84 76 75 78 80 81 82 82 83 83 82 83 86 85 85 89 92 90
103 101 89 83 87 88 89 91 77 71 91 104 98 101 103 95 102 100 62 41 63 69 55 58 68 64 64 69 70 73 75 75 77 75 75 80 83 82 85 87 87 87 84 83 87 85 77 76 80 81 81 81 82 84 83 82 82 83 82 84 87 90 91
101 101 96 93 92 93 99 95 79 79 99 103 97 101 101 98 107 99 65 50 58 55 53 64 68 64 68 70 68 72 75 75 77 76 76 82 84 82 86 90 87 86 84 84 87 86 80 77 80 83 83 82 83 85 83 81 82 81 82 85 87 87 90
101 101 101 100 95 93 99 96 84 86 97 101 103 98 83 85 102 88 51 43 55 56 59 69 68 66 70 71 71 74 75 75 76 74 76 82 83 81 86 88 85 85 86 86 88 87 82 79 80 83 83 82 84 86 84 83 83 83 83 84 85 87 87
93 94 98 102 102 100 99 97 97 100 99 100 104 93 72 76 97 90 59 44 50 60 68 70 68 69 72 71 73 75 74 75 75 73 75 79 79 82 85 83 82 85 86 88 90 87 82 83 83 81 81 82 82 83 84 84 84 84 84 85 86 89 88
81 76 77 85 92 90 82 75 75 81 89 95 89 76 75 90 98 89 75 64 58 65 73 71 68 71 71 71 73 74 74 75 73 72 76 77 77 82 84 79 80 86 88 90 91 86 83 85 83 79 79 82 82 81 83 85 85 84 85 86 87 88 89
76 68 63 63 66 65 60 55 51 56 79 101 91 63 59 74 73 64 69 72 67 69 74 73 72 74 72 72 75 74 73 75 73 72 76 78 79 84 83 78 80 88 91 90 87 84 84 84 81 79 79 80 81 84 84 85 86 85 85 86 86 87 90
71 68 66 63 59 57 53 49 49 59 83 106 101 71 53 57 60 60 68 75 74 74 74 73 74 77 77 77 77 74 74 75 73 73 77 80 83 84 82 81 87 93 91 87 84 83 84 84 82 81 82 81 84 88 87 86 87 86 86 86 85 86 89
Wind_Speed
20 19 19 19 18 17 15 15 14 13 13 13 12 11 10 9 9 10 11 12 14 15 16 17 17 19 20 21 21 20 19 19 20 21 22 23 23 23 23 22 18 13 12 13 17 20 20 21 20 18 18 23 29 31 31 32 34 34 35 36 36 36 36
20 20 19 19 18 16 16 15 14 13 13 13 13 13 13 12 11 10 9 9 10 11 12 14 14 14 15 16 19 21 21 20 19 19 20 22 22 23 23 22 21 18 14 14 16 19 21 22 23 24 22 21 23 27 29 31 32 33 34 35 36 36 36
20 19 18 18 17 16 16 15 15 14 14 13 13 13 13 13 12 12 12 11 11 11 11 11 12 11 11 11 12 15 17 19 19 19 20 21 21 21 22 22 22 21 18 16 16 18 20 20 20 24 25 23 21 22 25 29 31 32 34 35 36 37 37
19 18 18 17 17 16 16 15 15 14 13 13 12 12 12 11 11 11 11 11 11 11 12 12 12 12 12 12 12 12 12 14 16 17 19 21 21 21 21 20 20 20 20 18 17 18 19 19 19 21 23 23 22 22 23 26 30 31 33 34 35 36 37
19 18 18 17 17 17 16 15 15 13 13 12 11 11 11 11 11 10 10 9 10 10 10 10 10 10 10 11 12 13 13 13 14 15 17 19 20 20 21 20 20 21 21 20 19 20 19 18 19 20 21 22 22 22 21 23 27 30 31 32 33 35 36
18 18 17 17 16 16 15 15 14 12 12 12 11 11 12 12 12 12 11 10 9 9 8 7 6 5 4 4 5 6 7 7 8 11 14 18 21 21 21 22 22 22 23 22 22 22 21 20 20 21 22 23 23 23 23 22 23 26 29 30 32 33 35
18 17 17 16 16 15 16 15 13 12 12 10 10 12 14 14 13 11 9 8 7 6 6 5 6 7 8 7 8 9 9 9 7 7 7 10 15 18 20 22 23 23 23 23 23 23 23 23 23 23 24 25 24 24 25 25 22 20 23 26 30 32 34
18 18 17 17 15 14 16 15 12 12 12 10 11 14 16 15 12 10 7 5 4 5 5 6 7 8 9 9 9 9 10 10 10 10 9 9 9 10 13 16 19 21 21 21 21 22 23 23 23 23 24 24 22 21 25 27 24 21 21 23 26 29 32
17 18 18 17 15 15 16 15 13 12 12 13 14 15 16 14 11 9 8 6 6 7 7 8 9 9 9 10 10 10 10 10 9 10 11 12 12 13 13 13 14 16 18 19 19 19 21 20 20 22 22 21 21 21 24 26 26 25 26 26 25 27 30
17 18 18 17 16 16 16 15 12 11 12 14 14 14 15 12 7 5 5 5 7 8 9 9 10 10 9 10 10 11 11 10 10 9 9 10 11 12 14 15 15 14 13 14 15 17 19 17 17 21 22 20 22 23 24 25 25 24 27 27 24 25 30
17 18 17 16 16 18 16 13 11 11 13 14 13 13 12 7 3 4 5 5 7 8 8 9 8 8 9 9 11 12 11 11 12 11 10 10 10 10 12 13 14 15 15 15 13 14 16 16 17 22 23 22 23 23 23 24 24 24 24 23 18 17 23
16 16 15 15 17 17 14 10 9 11 14 13 12 12 9 5 5 6 5 6 8 7 7 7 6 6 7 7 9 10 10 11 11 11 11 11 11 11 11 12 13 14 15 15 15 15 16 15 16 19 22 22 22 23 22 23 24 24 23 23 19 18 21
15 15 14 15 17 16 12 8 7 11 13 12 11 12 9 7 7 6 6 8 9 8 7 5 4 5 6 8 9 10 11 13 13 14 14 14 14 14 13 13 14 15 15 16 16 16 17 18 18 19 21 21 20 21 22 22 24 25 24 24 23 24 27
14 13 13 15 16 14 10 7 8 12 13 12 12 11 9 8 7 6 6 7 8 8 6 4 5 7 8 9 11 12 14 16 17 17 16 14 14 14 13 14 14 15 15 16 16 15 16 18 18 19 22 24 23 23 23 22 22 23 24 26 27 29 32
13 12 12 13 14 12 9 7 9 12 13 12 12 11 9 8 7 5 5 6 7 5 4 5 7 8 8 9 12 14 16 17 17 18 16 14 14 15 14 12 12 13 13 13 14 15 17 19 19 19 22 23 23 23 26 27 26 26 27 28 29 29 31
12 11 10 11 11 10 8 7 9 12 13 13 12 11 10 8 6 5 5 6 5 3 3 5 7 7 7 9 12 16 18 18 18 19 17 15 16 16 15 13 12 13 15 15 17 18 20 21 22 22 23 23 23 22 23 25 26 27 27 27 24 23 26
10 9 9 9 10 9 8 8 9 11 13 13 12 11 10 7 6 5 6 6 5 3 3 5 7 9 10 11 14 17 20 19 19 19 19 17 16 16 17 17 17 19 21 22 23 23 24 25 26 26 26 27 26 25 24 24 22 20 21 20 16 14 21
10 9 8 8 8 7 7 9 9 9 12 13 12 11 10 7 5 5 5 5 5 5 5 5 7 10 12 14 16 19 20 19 18 19 18 16 16 17 20 21 21 21 24 25 26 27 28 30 30 30 30 30 30 28 27 24 22 21 21 19 15 13 18
9 9 7 7 8 6 6 9 9 9 11 13 12 11 9 5 4 4 5 5 6 8 8 7 6 8 12 16 18 19 19 18 17 18 16 15 17 19 21 21 21 22 25 27 28 29 29 29 29 29 29 29 28 27 26 24 24 25 24 21 20 19 17
9 9 8 7 6 5 6 9 10 10 12 13 13 11 6 3 3 6 8 8 8 8 9 9 9 12 15 17 18 18 18 17 16 15 15 15 17 18 19 21 22 24 24 24 25 25 25 25 25 25 25 25 25 24 23 22 23 23 23 22 22 22 19
10 9 8 7 6 6 5 6 8 11 12 12 13 10 7 6 6 7 8 8 9 10 10 11 14 16 17 16 16 16 16 15 14 14 14 15 16 16 18 20 21 20 20 19 20 21 21 22 23 23 22 22 21 20 19 20 20 20 22 24 23 21 20
8 7 7 6 5 4 2 3 7 11 11 11 12 10 8 8 8 7 8 10 11 10 11 12 15 16 15 14 14 14 13 13 12 13 14 14 15 16 17 17 16 16 17 18 19 20 20 20 21 21 22 22 22 22 23 25 26 25 25 27 27 24 22
8 8 8 6 3 1 2 5 8 10 9 10 11 9 8 9 10 9 10 11 9 9 11 12 13 13 12 12 12 12 12 12 13 13 14 14 16 16 16 15 15 16 18 18 18 18 19 20 21 23 25 26 27 29 30 31 31 30 29 29 29 27 26
8 7 6 4 2 1 4 7 8 8 9 9 9 8 8 9 10 10 12 11 9 9 11 11 11 11 10 11 12 11 11 12 13 13 14 15 16 15 15 16 17 18 18 18 18 18 18 20 21 23 25 27 28 30 31 30 30 29 28 28 28 28 27
6 5 6 5 2 3 5 6 5 6 8 9 8 8 8 8 9 11 12 12 11 10 9 9 9 9 10 11 11 11 11 12 13 14 14 15 16 16 17 18 19 19 19 18 18 18 18 20 21 22 23 25 26 27 28 28 28 28 28 28 29 30 29
4 5 6 4 3 4 5 5 3 4 8 9 7 6 6 7 10 12 12 12 12 10 7 8 8 9 10 10 11 11 12 13 14 14 15 16 16 17 17 18 18 19 19 19 18 18 19 20 21 22 23 23 24 25 25 26 27 28 29 29 30 31 31
4 6 5 3 4 3 4 4 2 3 9 10 6 5 7 8 11 12 12 12 11 9 8 8 8 8 9 10 11 11 12 13 14 15 16 16 16 16 16 16 16 17 18 19 18 18 19 20 21 22 23 23 23 25 25 25 26 27 28 28 28 27 27
5 6 3 2 3 3 2 3 2 2 9 11 6 5 9 10 10 12 12 11 10 7 7 7 6 7 9 10 11 12 13 14 15 16 16 16 16 16 15 15 16 17 18 19 18 18 20 21 22 22 22 22 23 24 25 26 26 26 26 26 25 22 22
7 5 2 1 2 3 3 3 3 1 7 9 6 7 9 9 9 12 12 10 7 5 5 6 6 9 11 12 12 13 14 15 15 16 16 16 16 16 16 15 17 18 20 19 18 18 20 21 22 22 22 23 24 23 24 25 25 25 26 25 23 21 21
4 2 1 1 2 1 1 3 3 2 5 7 5 6 8 7 8 10 10 7 5 4 6 8 8 10 11 11 12 13 14 14 15 16 17 17 16 16 15 16 17 18 19 19 18 18 19 21 21 21 22 23 23 23 24 24 24 24 25 25 23 22 22
3 3 3 1 1 2 1 1 2 2 4 6 5 6 7 6 7 8 8 6 5 5 8 9 9 9 10 10 11 12 12 13 14 15 16 16 17 16 16 17 18 18 19 19 18 17 18 20 20 20 21 22 22 22 23 24 24 25 25 24 22 21 21
2 3 4 4 3 2 1 1 1 2 4 5 6 7 7 5 7 8 8 5 5 7 8 8 7 8 9 9 10 10 11 11 12 14 15 15 17 17 17 17 18 18 17 18 18 18 19 20 20 20 20 21 21 21 23 24 24 24 24 23 22 21 20
4 3 1 2 3 2 1 2 3 3 4 5 6 7 7 5 6 7 8 6 6 7 7 6 6 6 7 8 8 9 9 10 12 13 13 14 15 16 17 17 17 16 16 17 17 17 19 19 20 20 21 21 21 21 22 23 23 23 23 22 21 21 21
7 6 5 5 5 4 4 4 3 3 3 4 5 6 5 3 3 3 5 7 7 6 5 5 5 6 6 6 7 8 9 10 11 12 13 14 14 15 16 17 16 15 16 16 16 17 18 19 19 20 21 21 22 22 22 22 22 22 22 21 21 21 22
5 6 6 5 6 6 5 5 4 2 1 4 5 5 2 1 2 2 3 5 6 5 5 4 5 6 6 7 8 9 9 10 11 11 12 13 14 15 16 17 16 15 16 17 17 17 17 18 19 20 20 21 22 22 21 21 21 21 21 21 22 22 22
6 7 6 5 4 4 4 3 2 1 1 3 4 4 1 1 2 3 4 4 4 5 5 4 4 6 7 7 8 9 9 10 11 11 11 12 13 14 16 15 15 15 16 17 17 17 17 17 18 19 20 21 21 21 21 21 21 21 21 22 22 22 22
Wind_Direction
331 331 330 330 331 331 331 328 324 320 317 312 306 305 307 302 294 289 284 278 272 266 266 266 264 260 256 254 255 255 255 252 249 249 249 251 255 255 254 255 254 258 266 259 252 257 256 252 258 266 255 240 234 233 233 235 238 241 243 246 248 250 251
329 329 329 329 330 330 330 329 328 326 322 318 312 306 305 304 303 301 296 292 287 280 275 272 270 268 264 259 256 256 256 256 254 252 252 252 254 256 256 254 255 259 266 268 260 258 260 257 254 259 262 254 243 237 235 236 238 240 242 245 247 249 251
327 327 327 328 329 329 329 330 330 328 325 324 322 316 312 309 306 305 301 297 295 290 287 285 283 279 275 272 267 262 258 257 256 254 254 255 254 257 258 255 255 257 262 269 268 260 259 257 254 254 257 260 259 252 245 242 242 242 243 244 245 246 249
327 327 327 328 329 330 330 331 331 331 330 328 326 323 321 319 314 310 307 304 301 299 296 295 294 291 286 281 278 277 271 264 260 258 257 258 256 256 259 259 257 258 262 269 271 265 261 259 258 256 255 257 262 262 255 249 247 245 244 244 245 246 248
326 327 328 328 329 329 331 331 329 329 330 329 328 328 326 323 318 313 310 307 307 307 307 305 302 300 297 290 285 284 284 279 270 264 259 258 257 257 259 262 261 261 264 269 270 268 266 262 260 259 256 253 257 264 265 256 247 243 243 244 245 247 249
324 325 326 326 327 329 330 328 327 330 333 332 332 334 332 327 321 316 311 310 314 318 322 330 336 340 344 341 336 331 327 317 294 278 268 262 260 259 260 261 261 260 261 263 266 268 268 264 260 261 260 256 256 263 268 266 255 245 241 242 244 246 248
320 322 322 320 323 326 324 322 326 332 331 329 334 337 335 331 326 321 315 313 317 330 351 13 30 36 39 40 36 31 24 17 4 341 311 283 272 266 259 256 256 256 256 256 259 262 264 263 261 259 259 258 258 260 263 264 264 256 245 242 242 245 246
317 317 315 315 319 320 317 318 326 330 327 330 338 337 334 333 331 334 344 350 352 5 14 16 20 23 22 21 19 13 12 12 5 355 343 332 323 303 280 266 256 250 249 249 251 255 257 258 259 257 257 256 254 253 254 256 261 265 260 251 246 245 246
312 312 310 313 316 313 313 318 322 326 330 335 333 329 329 329 325 332 348 359 3 8 10 0 0 5 4 1 355 351 353 352 347 344 337 328 329 327 320 309 288 265 252 246 245 249 252 255 254 253 252 251 246 245 250 255 258 261 263 262 259 253 250
307 305 308 314 314 311 315 321 322 327 333 331 324 323 327 323 318 340 360 3 359 360 359 352 349 352 354 351 343 338 336 328 320 323 325 319 320 321 321 319 314 303 286 267 254 249 249 250 252 253 252 250 248 248 250 252 254 255 259 261 261 258 253
301 301 308 311 310 313 319 324 329 335 334 329 325 327 326 316 338 26 28 24 15 5 358 355 350 347 346 343 336 329 327 326 324 322 316 309 310 316 317 313 307 305 302 295 285 272 261 253 253 256 256 255 256 255 251 249 249 251 253 253 252 255 255
300 303 308 307 307 315 323 329 340 339 334 333 334 335 338 350 20 27 24 17 14 7 4 9 9 1 358 355 348 341 339 337 335 336 333 323 316 315 317 315 308 303 303 301 297 293 285 277 273 270 265 259 257 257 255 253 251 249 249 248 246 249 253
302 305 307 304 306 316 323 332 350 343 336 339 339 338 356 24 31 27 11 360 1 6 16 29 25 20 18 5 357 1 4 359 352 348 341 333 329 324 318 313 306 303 307 310 305 297 292 292 293 292 285 278 273 267 259 253 250 249 249 249 248 250 253
302 303 303 302 307 318 323 330 349 343 339 345 343 342 359 12 11 8 355 352 0 9 31 46 22 19 17 1 2 12 10 1 356 351 343 338 337 334 329 325 316 307 304 309 313 310 305 304 303 302 299 296 293 285 273 263 256 251 250 250 252 254 255
298 298 298 300 305 314 320 330 344 343 343 347 345 349 3 360 354 356 345 349 2 11 40 36 11 14 14 359 2 10 3 354 352 352 350 348 345 340 335 332 331 328 319 316 321 321 318 317 315 314 314 310 306 297 285 279 273 266 261 258 256 255 253
295 293 295 296 299 308 318 332 345 345 346 348 346 352 3 358 351 348 336 343 355 359 30 23 13 23 21 3 1 1 354 349 347 348 348 345 343 340 331 321 316 314 308 308 315 316 313 311 310 310 312 310 310 308 301 297 291 281 271 262 255 253 249
293 293 293 290 291 304 317 329 345 349 347 348 349 352 357 355 348 340 332 339 345 344 26 36 31 34 25 7 359 353 347 343 342 342 340 337 339 340 332 323 315 307 301 301 301 299 297 297 298 302 304 301 300 303 307 311 309 299 288 274 259 249 248
297 294 291 287 289 299 313 322 340 354 349 349 352 352 353 352 341 331 330 337 354 21 54 59 42 32 19 3 352 346 342 341 340 340 339 339 345 344 334 328 324 319 315 310 302 296 294 293 295 298 299 297 295 297 300 303 301 297 295 289 279 271 262
294 287 282 284 290 292 304 319 339 355 352 351 350 346 347 348 340 353 12 27 38 42 43 38 20 5 355 350 347 343 341 341 341 343 346 348 349 344 335 331 329 326 324 319 313 311 309 307 306 305 303 302 301 300 299 299 298 293 285 275 271 274 273
284 281 279 281 281 278 300 327 346 354 352 352 349 351 14 79 63 46 50 48 37 21 11 3 345 334 338 343 345 342 340 343 345 346 347 349 347 340 333 330 329 327 326 324 321 320 318 315 314 312 311 310 308 305 301 298 298 296 290 280 271 267 262
283 284 285 288 279 267 288 335 349 348 351 354 353 6 59 83 50 43 44 29 14 2 355 347 335 334 341 346 344 342 343 347 350 351 352 352 347 338 334 335 334 333 333 331 329 327 323 322 320 319 319 319 317 315 311 306 305 305 306 305 299 288 277
291 285 283 292 287 267 281 4 351 347 353 354 354 14 59 64 48 39 19 7 3 353 342 336 336 342 347 344 342 346 352 355 360 2 2 357 349 344 346 346 344 344 342 339 338 336 334 334 335 333 333 331 326 322 318 316 315 311 309 310 308 304 298
300 286 278 277 273 254 48 14 353 352 358 357 358 13 40 53 55 41 11 4 2 343 330 335 346 353 350 345 350 359 4 8 12 11 8 3 359 359 360 357 354 355 354 351 350 349 346 345 344 340 336 333 329 325 323 321 319 316 313 312 310 305 301
303 300 298 293 276 60 23 3 352 354 3 5 4 12 27 45 50 32 9 3 357 337 333 345 357 358 355 358 6 11 14 18 20 17 14 12 12 13 11 9 8 7 4 1 359 356 350 345 343 339 336 333 329 326 324 322 321 319 316 313 312 308 304
310 322 321 317 4 44 10 358 349 349 4 12 8 7 20 30 21 3 353 351 347 339 342 356 5 4 7 15 17 19 23 25 23 21 19 18 20 21 18 16 15 12 8 5 1 354 347 343 341 337 333 331 329 328 328 328 326 325 321 319 317 311 304
327 332 320 330 44 39 4 358 343 344 10 18 5 346 345 340 335 335 338 344 346 349 3 20 18 12 15 23 25 26 27 25 23 22 21 21 22 22 19 17 15 12 8 2 356 350 345 342 341 338 337 337 336 335 336 336 333 329 327 327 327 320 309
343 333 328 3 40 14 352 349 313 345 12 14 1 339 334 328 329 333 341 350 357 8 31 36 22 13 21 31 33 32 30 26 23 20 20 21 21 17 16 16 12 9 6 360 355 352 348 344 344 343 343 344 342 339 337 337 336 333 330 330 330 324 316
340 330 336 28 12 331 329 327 282 346 6 2 7 9 353 345 347 348 352 2 9 17 38 44 23 15 28 36 33 28 26 23 21 17 16 17 15 12 12 10 5 4 3 0 357 353 349 347 347 346 346 345 342 339 337 337 336 333 330 331 331 323 316
321 310 289 311 315 285 260 270 254 304 348 347 5 18 2 2 10 1 359 12 21 18 39 55 42 26 30 33 29 23 20 18 14 12 12 13 9 6 6 5 0 359 357 355 354 353 351 348 346 345 345 344 340 337 337 337 336 334 331 331 330 322 316
322 317 293 287 302 281 242 263 261 285 334 344 7 16 6 17 22 4 1 20 42 42 49 56 48 33 29 29 27 21 16 13 9 6 6 7 4 2 2 359 355 354 351 349 349 349 348 347 344 343 345 343 339 336 336 336 335 334 332 330 327 323 320
353 25 43 85 173 177 177 284 282 313 347 358 13 10 5 19 26 15 15 30 46 51 50 50 43 33 26 24 24 19 12 8 5 2 1 1 358 358 358 354 349 349 348 347 347 348 347 345 342 342 343 341 337 335 335 336 335 333 331 330 328 325 323
355 20 46 64 89 148 216 314 4 18 4 9 14 360 353 13 30 24 20 29 50 57 50 43 36 28 20 16 16 13 6 2 360 358 358 356 352 352 352 349 346 346 347 348 348 346 344 342 340 341 341 338 336 335 333 333 334 332 331 330 329 327 326
298 291 288 72 76 87 46 11 30 23 5 10 11 358 351 7 31 27 19 25 49 61 51 35 28 21 13 7 4 360 357 355 353 353 354 351 348 346 345 343 344 346 346 347 346 343 340 339 339 340 339 337 336 335 333 331 331 330 330 329 329 329 328
285 286 265 244 245 260 280 296 303 318 347 358 359 1 11 31 55 49 33 29 41 53 45 25 16 5 355 351 350 348 347 346 347 347 346 344 343 342 340 341 344 346 344 341 340 339 339 338 339 340 338 336 335 334 332 331 331 330 331 331 330 329 326
277 295 292 273 265 273 287 295 291 290 2 10 353 349 7 119 131 92 57 35 27 25 20 12 359 346 340 337 337 338 336 336 338 340 340 339 338 336 336 339 342 342 339 337 336 337 337 336 337 338 337 335 335 333 332 330 330 331 332 330 327 324 323
268 285 296 297 288 287 298 300 285 273 41 25 359 345 346 123 98 72 63 44 9 349 347 350 340 330 328 326 326 327 327 326 329 332 332 332 331 329 331 335 338 336 334 333 332 333 333 333 334 334 335 335 333 331 329 327 328 329 330 328 324 322 322